TimeCDT,TemperatureF,Dew PointF,Humidity,Sea Level PressureIn,VisibilityMPH,Wind Direction,Wind SpeedMPH,Gust SpeedMPH,PrecipitationIn,Events,Conditions,WindDirDegrees,DateUTC
12:53 AM,66.0,57.9,75,29.91,10.0,SSE,4.6,-,N/A,,Clear,160,2013-06-08 05:53:00
1:53 AM,66.0,57.9,75,29.90,10.0,South,5.8,-,N/A,,Clear,170,2013-06-08 06:53:00
2:53 AM,64.9,57.9,78,29.88,10.0,South,5.8,-,N/A,,Clear,170,2013-06-08 07:53:00
3:53 AM,63.0,57.9,84,29.88,10.0,SSE,3.5,-,N/A,,Clear,160,2013-06-08 08:53:00
4:53 AM,64.0,57.0,78,29.88,10.0,Calm,Calm,-,N/A,,Clear,0,2013-06-08 09:53:00
5:53 AM,61.0,57.0,87,29.88,10.0,Calm,Calm,-,N/A,,Clear,0,2013-06-08 10:53:00
6:53 AM,62.1,57.0,84,29.89,10.0,Calm,Calm,-,N/A,,Clear,0,2013-06-08 11:53:00
7:53 AM,66.9,57.9,73,29.89,10.0,South,4.6,-,N/A,,Clear,180,2013-06-08 12:53:00
8:53 AM,72.0,57.0,59,29.88,10.0,SSE,12.7,-,N/A,,Clear,160,2013-06-08 13:53:00
9:53 AM,75.9,55.9,50,29.88,10.0,SSE,20.7,24.2,N/A,,Clear,160,2013-06-08 14:53:00
10:53 AM,77.0,55.9,48,29.86,10.0,SSE,13.8,20.7,N/A,,Clear,160,2013-06-08 15:53:00
11:53 AM,80.1,55.0,42,29.87,10.0,South,15.0,20.7,N/A,,Clear,170,2013-06-08 16:53:00
12:53 PM,80.1,54.0,40,29.86,10.0,South,15.0,-,N/A,,Clear,170,2013-06-08 17:53:00
1:53 PM,81.0,54.0,39,29.83,10.0,SSE,17.3,23.0,N/A,,Scattered Clouds,160,2013-06-08 18:53:00
2:53 PM,87.1,55.9,35,29.78,10.0,SSE,18.4,25.3,N/A,,Clear,160,2013-06-08 19:53:00
3:53 PM,87.1,55.0,33,29.76,10.0,SSE,17.3,28.8,N/A,,Clear,150,2013-06-08 20:53:00
4:53 PM,88.0,55.0,32,29.74,10.0,SSE,21.9,27.6,N/A,,Clear,150,2013-06-08 21:53:00
5:53 PM,88.0,55.0,32,29.72,10.0,SSE,15.0,28.8,N/A,,Clear,160,2013-06-08 22:53:00
6:53 PM,84.9,57.0,38,29.71,10.0,SSE,18.4,26.5,N/A,,Clear,150,2013-06-08 23:53:00
7:53 PM,82.9,57.9,42,29.73,10.0,SE,16.1,20.7,N/A,,Clear,140,2013-06-09 00:53:00
8:53 PM,80.1,57.9,47,29.75,10.0,SE,12.7,-,N/A,,Clear,130,2013-06-09 01:53:00
9:53 PM,75.0,61.0,62,29.78,10.0,SE,6.9,-,N/A,,Clear,130,2013-06-09 02:53:00
10:53 PM,75.0,62.1,64,29.81,10.0,SE,9.2,-,N/A,,Clear,130,2013-06-09 03:53:00
11:42 PM,75.2,62.6,65,29.87,10.0,SE,9.2,-,N/A,Thunderstorm,Mostly Cloudy,130,2013-06-09 04:42:00
11:53 PM,75.0,62.1,64,29.90,10.0,NNW,19.6,27.6,N/A,Thunderstorm,Overcast,340,2013-06-09 04:53:00